JH5HTX-13 Weather Reports


time (UTC)temp
C
wind
direction
speed
KPH
gust
KPH
rain 1hr
cm
rain 24hr
cm
rain mn
cm
humidity
%
barometer
mb
20260504045730 17 211 0.0 0.0 0.00 0.30 0.30 62 1009.4
20260504044230 17 180 0.0 0.0 0.00 0.30 0.30 61 1009.1
20260504042730 18 225 0.0 0.0 0.00 0.30 0.30 61 1009.1
20260504041230 18 211 0.0 0.0 0.00 0.30 0.30 61 1009.0
20260504035730 19 199 0.0 0.0 0.00 0.30 0.30 59 1008.8
20260504034230 18 225 0.0 0.0 0.00 0.30 0.30 60 1008.8
20260504032729 18 192 0.0 0.0 0.00 0.30 0.30 61 1008.5
20260504031229 18 183 0.0 0.0 0.00 0.30 0.30 61 1008.6
20260504025729 18 249 0.0 0.0 0.00 0.30 0.30 62 1008.5
20260504024229 18 225 0.0 0.0 0.00 0.30 0.30 62 1008.3
20260504022729 18 172 0.0 0.0 0.00 0.30 0.30 61 1008.0
20260504021229 18 264 0.0 0.0 0.00 0.30 0.30 60 1008.1
20260504015729 18 158 0.0 0.0 0.00 0.30 0.30 61 1007.6
20260504014229 18 180 0.0 0.0 0.00 0.30 0.30 65 1007.6
20260504012729 17 248 0.0 0.0 0.00 0.30 0.30 69 1007.9
20260504011229 17 225 0.0 0.0 0.00 0.30 0.30 69 1007.7
20260504005728 18 287 0.0 0.0 0.00 0.30 0.30 67 1007.8
20260504004228 17 218 0.0 0.0 0.00 0.30 0.30 68 1007.7
20260504002728 17 225 0.0 0.0 0.00 0.30 0.30 67 1007.5
20260504001228 17 190 0.0 0.0 0.00 0.30 0.30 68 1007.5
20260503235728 17 230 0.0 0.0 0.00 0.30 0.30 67 1007.5
20260503234228 17 248 0.0 0.0 0.00 0.30 0.30 68 1007.2
20260503232728 17 227 0.0 0.0 0.00 0.30 0.30 68 1007.1
20260503231228 17 253 0.0 0.0 0.00 0.30 0.30 69 1006.9
20260503225728 17 189 0.0 0.0 0.00 0.30 0.30 70 1006.5
20260503224228 17 202 0.0 0.0 0.00 0.30 0.30 70 1006.4
20260503222727 17 292 0.0 0.0 0.00 0.30 0.30 73 1006.5
20260503221227 17 205 0.0 0.0 0.00 0.30 0.30 74 1005.9
20260503215727 17 270 0.0 0.0 0.00 0.30 0.30 74 1005.8
20260503214227 17 270 0.0 0.0 0.00 0.30 0.30 75 1005.9
20260503212727 17 148 0.0 0.0 0.00 0.30 0.30 76 1005.6
20260503211227 16 225 0.0 0.0 0.00 0.30 0.30 77 1005.5
20260503205727 16 248 0.0 0.0 0.00 0.30 0.30 76 1004.6
20260503204227 16 202 0.0 0.0 0.00 0.30 0.30 76 1004.5
20260503202726 16 291 0.0 0.0 0.00 0.30 0.30 78 1004.4
20260503201226 16 202 0.0 0.0 0.00 0.30 0.30 78 1004.3
20260503195726 17 248 0.0 0.0 0.00 0.30 0.30 76 1004.1
20260503194226 17 225 0.0 0.0 0.00 0.30 0.30 75 1004.2
20260503192726 16 248 0.0 0.0 0.00 0.30 0.30 76 1003.9
20260503191226 16 270 0.0 0.0 0.00 0.30 0.30 78 1003.8
20260503185726 16 270 0.0 0.0 0.00 0.30 0.30 81 1003.6
20260503184226 16 180 0.0 0.0 0.00 0.30 0.30 83 1003.5
20260503182726 16 315 0.0 0.0 0.00 0.30 0.30 85 1003.6
20260503181226 16 206 0.0 0.0 0.00 0.30 0.30 87 1003.4
20260503175725 16 248 0.0 0.0 0.00 0.30 0.30 87 1002.9
20260503174225 16 292 0.0 0.0 0.00 0.30 0.30 88 1002.5
20260503172725 16 270 0.0 0.0 0.00 0.30 0.30 89 1002.9
20260503171225 17 225 0.0 0.0 0.00 0.30 0.30 94 1002.1